[[{"header":{"parameterUnit":"m.s-1","parameterCategory":1,"la1":30.2991,"la2":30.254,"lo1":-89.0895,"lo2":-89.0444,"dy":0.0017,"dx":0.0017,"nx":28,"ny":28,"refTime":"2023-04-25T21:00:00:Z","depth":0,"parameterNumber":2,"parameterNumberName":"U-component_of_WINDS"},"data":[0,0,0,0,0,0,0,0,0,0,0,0,0,0,0,0,0,0,0,0,0,0,0,0,0,0,0,0,0,0,0,0,0,0,0,0,0,0,0,0,0,0,0,0,0,0,0,0,0,0,0,0,0,0,0,0,0,0,-4.1977,-4.1976,0,-4.1939,-4.1938,-4.1938,-4.1834,-4.1831,-4.1829,-4.1827,-4.1792,-4.1793,-4.1794,0,0,0,0,0,0,0,0,0,0,0,0,0,-4.1963,-4.1964,-4.1977,-4.1976,-4.1976,-4.1939,-4.1938,-4.1938,-4.1834,-4.1831,-4.1829,-4.1826,-4.1791,-4.1793,-4.1794,0,0,0,0,0,0,0,0,0,0,0,0,0,-4.1952,-4.1964,-4.1977,-4.1919,-4.1914,-4.1939,-4.1938,-4.1938,-4.1835,-4.1831,-4.1828,-4.1825,-4.1791,-4.1792,-4.1794,-4.1873,0,0,-4.1799,-4.18,0,0,0,0,0,0,0,0,-4.1952,-4.1952,-4.1928,-4.1923,-4.1917,-4.1887,-4.192,-4.1916,-4.1835,-4.1865,-4.1827,-4.1823,-4.1826,-4.1825,-4.1825,-4.1871,-4.1869,-4.18,-4.1801,-4.1801,-4.1802,0,0,0,0,0,0,0,-4.1953,-4.1953,-4.1962,-4.1928,-4.1921,-4.1897,-4.1892,-4.1919,-4.1865,-4.1862,-4.1854,-4.1851,-4.1823,-4.1824,-4.1824,-4.1869,-4.18,-4.1801,-4.1802,-4.1803,-4.1977,-4.198,0,0,0,0,0,0,-4.1962,-4.1955,-4.1963,-4.196,-4.1927,-4.19,-4.1894,-4.19,-4.1865,-4.1856,-4.1854,-4.1846,-4.1823,-4.1822,-4.1822,-4.191,-4.1801,-4.1803,-4.1804,-4.1973,-4.1977,-4.1981,0,0,0,0,0,0,-4.1962,-4.1964,-4.1964,-4.1955,-4.1954,-4.1904,-4.1912,-4.1901,-4.1902,-4.1858,-4.1849,-4.1865,-4.182,-4.182,-4.186,-4.1908,-4.1804,-4.1805,-4.1969,-4.1974,-4.1979,-4.2089,0,0,0,0,0,0,-4.1962,-4.1964,-4.1992,-4.1957,-4.1955,-4.2002,-4.1915,-4.1903,-4.1905,-4.1895,-4.1866,-4.1858,-4.1817,-4.1858,-4.1862,-4.1908,-4.1807,-4.1964,-4.1971,-4.1978,-4.208,-4.2097,-4.2111,0,0,0,0,0,-4.1962,-4.2026,-4.1994,-4.1996,-4.1989,-4.2005,-4.2004,-4.1955,-4.191,-4.1938,-4.191,-4.1859,-4.1903,-4.1863,-4.1867,-4.1914,-4.1961,-4.1969,-4.1977,-4.2074,-4.2094,-4.2111,0,0,0,0,0,0,-4.2069,-4.202,-4.1985,-4.2038,-4.2027,-4.1988,-4.2022,-4.1978,-4.198,-4.197,-4.191,-4.1905,-4.1954,-4.1938,-4.1896,-4.1988,-4.1924,-4.1933,-4.1996,-4.2015,-4.203,-4.2031,-4.1808,0,0,0,0,0,-4.2099,-4.2115,-4.2072,-4.2124,-4.212,-4.2072,-4.2078,-4.2041,-4.2027,-4.2021,-4.1996,-4.1986,-4.1997,-4.2005,-4.2013,-4.2079,-4.2071,-4.2113,-4.2129,-4.2141,-4.2149,-4.2182,-4.22,-4.2008,-4.2008,-4.2007,0,0,-4.2161,-4.2136,-4.215,-4.2145,-4.2131,-4.215,-4.2069,-4.2092,-4.2106,-4.2025,-4.2061,-4.2043,-4.2027,-4.2081,-4.2103,-4.2069,-4.2201,-4.2152,-4.2162,-4.2163,-4.2193,-4.2211,-4.2227,-4.2013,-4.2012,-4.2011,0,0,-4.2282,-4.2266,-4.2306,-4.2294,-4.2275,-4.2243,-4.2253,-4.2221,-4.2205,-4.2241,-4.218,-4.2197,-4.2218,-4.2208,-4.2207,-4.2327,-4.228,-4.2332,-4.2411,-4.2444,-4.2459,-4.2472,-4.2514,-4.2529,-4.234,-4.234,-4.2341,0,-4.2361,-4.2386,-4.2333,-4.236,-4.236,-4.2287,-4.2328,-4.232,-4.2305,-4.2307,-4.227,-4.2294,-4.2278,-4.2328,-4.2358,-4.2359,-4.2369,-4.2333,-4.2461,-4.2474,-4.2485,-4.2524,-4.254,-4.2347,-4.2346,-4.2345,-4.2345,0,-4.2484,-4.2503,-4.2539,-4.2524,-4.2528,-4.2563,-4.2516,-4.2527,-4.249,-4.2463,-4.25,-4.248,-4.2481,-4.2491,-4.2457,-4.2537,-4.2516,-4.2471,-4.2405,-4.251,-4.2546,-4.2561,-4.2356,-4.2353,-4.2351,-4.235,0,0,-4.267,-4.2626,-4.264,-4.2632,-4.2606,-4.262,-4.2653,-4.2653,-4.2663,-4.2657,-4.2682,-4.2702,-4.2659,-4.2658,-4.2622,-4.2651,-4.2746,-4.2602,-4.2601,-4.2628,-4.2832,-4.2865,-4.2883,-4.2716,-4.2719,-4.2721,-4.2833,0,-4.2784,-4.2833,-4.2787,-4.2846,-4.2863,-4.2795,-4.2823,-4.2811,-4.2787,-4.2799,-4.2773,-4.2787,-4.2731,-4.273,-4.2756,-4.2729,-4.2786,-4.2721,-4.2739,-4.274,-4.2742,-4.2902,-4.2936,-4.3042,-4.2847,-4.2849,-4.2851,0,-4.2922,-4.2919,-4.298,-4.295,-4.2955,-4.2981,-4.2978,-4.299,-4.2976,-4.2956,-4.2955,-4.2911,-4.2941,-4.2878,-4.2919,-4.2876,-4.2881,-4.287,-4.2873,-4.287,-4.28,-4.2902,-4.3075,-4.3091,-4.2872,-4.2871,-4.2869,0,-4.3049,-4.3062,-4.3099,-4.3095,-4.3062,-4.3081,-4.3068,-4.305,-4.3054,-4.3053,-4.3054,-4.3058,-4.3059,-4.3063,-4.3021,-4.2979,-4.3068,-4.3001,-4.3052,-4.3053,-4.3071,-4.307,-4.3246,-4.3079,-4.3079,-4.3078,-4.3078,0,-4.3179,-4.3219,-4.3156,-4.3179,-4.3222,-4.3169,-4.3213,-4.3194,-4.3178,-4.3197,-4.314,-4.316,-4.3104,-4.3118,-4.3087,-4.3125,-4.3127,-4.3112,-4.3103,-4.3116,-4.3117,-4.3117,-4.3107,-4.3083,-4.3082,-4.3081,-4.308,0,-4.3327,-4.3287,-4.3323,-4.3289,-4.3281,-4.3314,-4.3284,-4.3305,-4.3278,-4.3303,-4.3305,-4.3263,-4.3277,-4.3236,-4.3244,-4.3223,-4.3278,-4.3258,-4.3282,-4.3275,-4.3328,-4.3323,-4.3507,-4.3528,-4.335,-4.3352,-4.3353,0,-4.3412,-4.344,-4.3409,-4.3416,-4.3406,-4.342,-4.3423,-4.3374,-4.338,-4.3366,-4.3388,-4.3397,-4.34,-4.3425,-4.3396,-4.3402,-4.338,-4.3444,-4.338,-4.3393,-4.3379,-4.3377,-4.3379,-4.3457,-4.3459,-4.3461,-4.3462,0,-4.3566,-4.3545,-4.355,-4.355,-4.3555,-4.3553,-4.3547,-4.3557,-4.3504,-4.3514,-4.3526,-4.3529,-4.3537,-4.3546,-4.3545,-4.3533,-4.3489,-4.3483,-4.3495,-4.3507,-4.352,-4.3512,-4.3316,-4.3478,-4.3477,-4.3476,-4.3475,-4.3474,-4.3683,-4.3705,-4.3686,-4.3695,-4.3685,-4.3681,-4.3698,-4.3673,-4.3682,-4.3683,-4.3654,-4.3672,-4.3658,-4.3652,-4.3645,-4.3659,-4.363,-4.3647,-4.3651,-4.3656,-4.3664,-4.3519,-4.3659,-4.3659,-4.3658,-4.3658,-4.3657,0,-4.3833,-4.3817,-4.3826,-4.3819,-4.3826,-4.3784,-4.3775,-4.3784,-4.3801,-4.379,-4.3795,-4.381,-4.3819,-4.3791,-4.3796,-4.3813,-4.3793,-4.3815,-4.3813,-4.381,-4.3691,-4.3679,-4.3831,-4.3831,-4.3831,-4.3831,-4.3831,-4.3831,-4.3911,-4.3946,-4.3923,-4.3952,-4.3937,-4.3953,-4.3952,-4.3948,-4.3939,-4.3957,-4.3964,-4.3945,-4.3928,-4.3931,-4.3938,-4.393,-4.3933,-4.3963,-4.3948,-4.3836,-4.3819,-4.3803,-4.3791,-4.3965,-4.3965,-4.4066,-4.4067,-4.4068]},{"header":{"parameterUnit":"m.s-1","parameterCategory":1,"la1":30.2991,"la2":30.254,"lo1":-89.0895,"lo2":-89.0444,"dy":0.0017,"dx":0.0017,"nx":28,"ny":28,"refTime":"2023-04-25T21:00:00:Z","depth":0,"parameterNumber":3,"parameterNumberName":"V-component_of_WINDS"},"data":[0,0,0,0,0,0,0,0,0,0,0,0,0,0,0,0,0,0,0,0,0,0,0,0,0,0,0,0,0,0,0,0,0,0,0,0,0,0,0,0,0,0,0,0,0,0,0,0,0,0,0,0,0,0,0,0,0,0,2.5241,2.5242,0,2.5318,2.5319,2.532,2.5375,2.5375,2.5376,2.5376,2.545,2.5452,2.5454,0,0,0,0,0,0,0,0,0,0,0,0,0,2.5137,2.5138,2.5241,2.5242,2.5243,2.5318,2.5319,2.532,2.5375,2.5375,2.5376,2.5376,2.545,2.5452,2.5454,0,0,0,0,0,0,0,0,0,0,0,0,0,2.5194,2.5139,2.524,2.5279,2.5283,2.5318,2.5319,2.532,2.5374,2.5375,2.5376,2.5376,2.5449,2.5452,2.5454,2.5455,0,0,2.5461,2.5462,0,0,0,0,0,0,0,0,2.5191,2.5198,2.5272,2.5276,2.5281,2.5338,2.531,2.5365,2.5374,2.534,2.5376,2.5377,2.5412,2.5417,2.543,2.5458,2.5462,2.5461,2.5463,2.5464,2.5464,0,0,0,0,0,0,0,2.5187,2.5195,2.5271,2.5273,2.5279,2.5291,2.53,2.532,2.5371,2.5343,2.5347,2.5356,2.5415,2.5428,2.5432,2.5463,2.5461,2.5463,2.5465,2.5466,2.5496,2.5496,0,0,0,0,0,0,2.5177,2.5191,2.5269,2.5273,2.5237,2.5293,2.5303,2.5319,2.5371,2.538,2.5355,2.5358,2.5424,2.543,2.5435,2.5441,2.5464,2.5466,2.5467,2.5497,2.5496,2.5495,0,0,0,0,0,0,2.5175,2.5184,2.5266,2.5234,2.5245,2.5294,2.5311,2.532,2.5333,2.538,2.5389,2.536,2.5424,2.5432,2.545,2.5444,2.5467,2.5469,2.5497,2.5496,2.5496,2.5451,0,0,0,0,0,0,2.5172,2.5183,2.5184,2.5233,2.5247,2.528,2.5311,2.5321,2.5338,2.5342,2.5387,2.5395,2.5426,2.5446,2.5452,2.5448,2.5471,2.5498,2.5497,2.5496,2.5453,2.5448,2.5445,0,0,0,0,0,2.5168,2.5167,2.5184,2.5193,2.525,2.528,2.5287,2.5324,2.5337,2.5339,2.5369,2.5393,2.5444,2.5448,2.5455,2.5451,2.5499,2.5497,2.5496,2.5455,2.5449,2.5445,0,0,0,0,0,0,2.5115,2.5175,2.5194,2.5209,2.5239,2.5289,2.5292,2.5316,2.5342,2.5345,2.5388,2.5397,2.5411,2.5433,2.5436,2.5455,2.5474,2.5474,2.544,2.5436,2.5431,2.5426,2.5473,0,0,0,0,0,2.5105,2.5125,2.5176,2.5185,2.5199,2.5243,2.5257,2.5283,2.5315,2.5327,2.5359,2.5388,2.541,2.5424,2.5447,2.5456,2.5467,2.5457,2.5453,2.5449,2.5449,2.5456,2.5452,2.5491,2.5491,2.5491,0,0,2.5085,2.512,2.513,2.5175,2.5201,2.5221,2.5253,2.5272,2.5286,2.533,2.535,2.5373,2.5409,2.5422,2.543,2.5441,2.544,2.5447,2.5444,2.5446,2.5454,2.545,2.5447,2.549,2.549,2.549,0,0,2.5058,2.5087,2.5098,2.5124,2.5164,2.5193,2.5195,2.5242,2.526,2.5281,2.5314,2.5331,2.5369,2.5393,2.541,2.5393,2.5416,2.5399,2.5377,2.5383,2.538,2.5378,2.5372,2.5369,2.5398,2.5398,2.5398,0,2.5027,2.5059,2.51,2.5118,2.5136,2.5178,2.5189,2.5212,2.5256,2.5268,2.528,2.5329,2.5355,2.5376,2.5372,2.5384,2.5388,2.5394,2.5377,2.5375,2.5374,2.5369,2.5366,2.5396,2.5396,2.5396,2.5397,0,2.502,2.5041,2.5045,2.509,2.5109,2.5123,2.5165,2.5179,2.5203,2.523,2.5251,2.5284,2.5316,2.5322,2.5345,2.5346,2.5352,2.537,2.539,2.5367,2.5363,2.5361,2.5392,2.5393,2.5394,2.5395,0,0,2.4962,2.5029,2.503,2.5051,2.5098,2.5115,2.513,2.5163,2.5174,2.5203,2.5217,2.5249,2.5266,2.5286,2.5312,2.5317,2.5302,2.5335,2.5336,2.5328,2.5306,2.5292,2.5289,2.5318,2.5318,2.5318,2.5303,0,2.4943,2.4975,2.5012,2.5031,2.5052,2.5092,2.5106,2.5135,2.5162,2.5182,2.521,2.5232,2.5253,2.5265,2.5273,2.5302,2.5298,2.5304,2.5331,2.5331,2.5321,2.5287,2.5273,2.5257,2.5302,2.5301,2.5301,0,2.4925,2.4954,2.4976,2.5022,2.5032,2.5044,2.5077,2.5096,2.513,2.5149,2.5171,2.5199,2.5217,2.5235,2.5259,2.5262,2.5275,2.5291,2.5292,2.5296,2.5315,2.5291,2.5253,2.5251,2.5299,2.5299,2.5299,0,2.4881,2.4926,2.4945,2.4961,2.5016,2.5023,2.5046,2.5081,2.5098,2.5126,2.5138,2.5167,2.5182,2.5204,2.5238,2.5248,2.5259,2.528,2.5275,2.5274,2.5276,2.5275,2.524,2.5283,2.5283,2.5283,2.5283,0,2.4857,2.4868,2.4926,2.4938,2.4952,2.4994,2.5006,2.5033,2.5064,2.508,2.5116,2.513,2.5176,2.5195,2.5222,2.5239,2.5245,2.526,2.5267,2.5257,2.5256,2.5267,2.5269,2.5283,2.5283,2.5283,2.5283,0,2.4811,2.485,2.4873,2.4923,2.4936,2.4944,2.4987,2.4999,2.5027,2.5048,2.5055,2.5099,2.5124,2.5161,2.5197,2.5215,2.5227,2.5239,2.5216,2.5221,2.5214,2.5214,2.5185,2.5183,2.5226,2.5226,2.5225,0,2.4793,2.4803,2.4855,2.4869,2.4891,2.4914,2.4932,2.4974,2.4991,2.5031,2.5038,2.5066,2.5091,2.5129,2.5163,2.5191,2.5203,2.5191,2.5207,2.5197,2.5204,2.5203,2.5204,2.5187,2.5186,2.5186,2.5185,0,2.4757,2.4776,2.4802,2.4834,2.4855,2.4883,2.4911,2.4921,2.4968,2.4985,2.5012,2.5032,2.5069,2.5096,2.5128,2.515,2.5175,2.518,2.5181,2.5171,2.5158,2.5165,2.5206,2.5181,2.5181,2.5181,2.5182,2.5182,2.4725,2.4736,2.4775,2.4802,2.4829,2.4855,2.4869,2.49,2.4924,2.4958,2.4981,2.5006,2.5041,2.5087,2.5108,2.5127,2.5138,2.5138,2.5139,2.5138,2.5135,2.5154,2.5133,2.5133,2.5134,2.5134,2.5134,0,2.4692,2.4719,2.4744,2.4784,2.4805,2.4828,2.4861,2.4877,2.49,2.4931,2.4955,2.4985,2.5012,2.5049,2.5078,2.5087,2.5099,2.5093,2.5093,2.5098,2.5123,2.512,2.5083,2.5083,2.5083,2.5083,2.5083,2.5083,2.4677,2.4698,2.4721,2.4755,2.4782,2.4809,2.4825,2.4849,2.4874,2.4908,2.4931,2.4955,2.4988,2.502,2.5045,2.5055,2.5064,2.5054,2.5068,2.5091,2.5096,2.51,2.5098,2.5056,2.5056,2.5041,2.5041,2.5041]}]]